This is the latest recevied weather packets stored in our database for station/object YT1XN-8. If no packets are shown the sender has not sent any weather packets the latest 10 day(s).
| Time | Temp. | Humidity | Pressure | Rain* | Wind** | Luminosity | Snow |
|---|---|---|---|---|---|---|---|
| 1777423246 | 11.11° C | 74% | 1018.8 hPa | 0 mm | - | - | - |
| 1777423005 | 11.11° C | 73% | 1018.8 hPa | 0 mm | - | - | - |
| 1777422647 | 11.11° C | 72% | 1018.8 hPa | 0 mm | - | - | - |
| 1777422345 | 11.11° C | 70% | 1018.9 hPa | 0 mm | - | - | - |
| 1777422046 | 11.67° C | 67% | 1018.9 hPa | 0 mm | - | - | - |
| 1777421685 | 12.22° C | 64% | 1018.9 hPa | 0 mm | - | - | - |
| 1777421446 | 12.22° C | 62% | 1018.8 hPa | 0 mm | - | - | - |
| 1777421025 | 12.22° C | 61% | 1018.7 hPa | 0 mm | - | - | - |
| 1777420846 | 12.22° C | 60% | 1018.8 hPa | 0 mm | - | - | - |
| 1777420365 | 12.22° C | 64% | 1018.9 hPa | 0 mm | - | - | - |
| 1777420246 | 12.22° C | 62% | 1018.9 hPa | 0 mm | - | - | - |
| 1777419705 | 12.22° C | 65% | 1018.8 hPa | 0 mm | - | - | - |
| 1777419646 | 12.22° C | 65% | 1018.8 hPa | 0 mm | - | - | - |
| 1777419045 | 12.22° C | 64% | 1018.9 hPa | 0 mm | - | - | - |
| 1777418446 | 12.78° C | 63% | 1018.9 hPa | 0 mm | - | - | - |
| 1777418385 | 12.78° C | 63% | 1019 hPa | 0 mm | - | - | - |
| 1777417846 | 12.78° C | 63% | 1019.1 hPa | 0 mm | - | - | - |
| 1777417725 | 12.78° C | 63% | 1019 hPa | 0 mm | - | - | - |
| 1777417248 | 13.33° C | 63% | 1019.2 hPa | 0 mm | - | - | - |
| 1777417065 | 13.33° C | 63% | 1019.2 hPa | 0 mm | - | - | - |
| 1777416646 | 13.33° C | 62% | 1019.2 hPa | 0 mm | - | - | - |
| 1777416405 | 13.33° C | 61% | 1019.3 hPa | 0 mm | - | - | - |
| 1777416046 | 13.33° C | 60% | 1019.2 hPa | 0 mm | - | - | - |
| 1777415745 | 13.33° C | 58% | 1019.2 hPa | 0 mm | - | - | - |
| 1777415446 | 13.33° C | 58% | 1019.2 hPa | 0 mm | - | - | - |
* Rain latest hour (hover to see other rain measurements)
** Current wind speed in m/s (hover to see current wind gust speed)